Regional Weather Roundup
Issued by NWS

Home | Current Version | Previous Version | Graphics & Text | Print | Product List | Glossary On
Versions: 1 2 3 4 5 6 7 8 9 10 11 12 13 14 15 16 17 18 19 20 21 22 23 24 25 26 27 28 29 30 31 32 33 34 35 36 37 38 39 40 41 42 43 44 45 46 47 48 49 50
000
ASUS43 KMKX 201710
RWRWI

WISCONSIN REGIONAL WEATHER ROUNDUP
NATIONAL WEATHER SERVICE MILWAUKEE/SULLIVAN WI
1200 PM CDT SUN MAY 20 2018

NOTE: "FAIR" INDICATES FEW OR NO CLOUDS BELOW 12,000 FEET WITH NO
SIGNIFICANT WEATHER AND/OR OBSTRUCTIONS TO VISIBILITY.

WIZ001-002-006>008-014>016-023>028-201800-
NORTHWEST WISCONSIN

CITY           SKY/WX    TMP DP  RH WIND       PRES   REMARKS
SUPERIOR ARPT  FAIR      59  32  36 NE5       30.29F
ASHLAND        FAIR      60  32  34 N12       30.29S
HAYWARD        FAIR      62  27  26 E10       30.26F
SIREN          FAIR      63  23  22 CALM      30.26F
CUMBERLAND     FAIR      59  25  27 E7        30.26S
RICE LAKE      FAIR      62  24  23 E10       30.27F
CHETEK         FAIR      60  29  30 E6G20     30.26S
LADYSMITH      FAIR      61  27  27 MISG      30.27F
EAU CLAIRE     FAIR      60  37  42 E10       30.24S
MENOMONIE      FAIR      62  36  37 E9        30.25S
NEW RICHMOND   FAIR      63  24  22 E9G17     30.25R
OSCEOLA        FAIR      63  26  24 E10       30.28S
$$

WIZ003>005-009-010-017-018-201800-
NORTH CENTRAL WISCONSIN

CITY           SKY/WX    TMP DP  RH WIND       PRES   REMARKS
MANITOWISH WTR FAIR      60  28  29 N10       30.26F
ARBOR VITAE    FAIR      62  28  27 SE8G17    30.26S
WOODRUFF       FAIR      62  28  27 SE8G17    30.26S
RHINELANDER    FAIR      61  28  28 VRB5      30.26F
EAGLE RIVER    FAIR      60  24  25 CALM      30.26S
LAND O LAKES   FAIR      61  26  27 E5        30.28S
PHILLIPS       FAIR      60  30  32 NE6       30.26S
TOMAHAWK       FAIR      58  29  33 NE5       30.27S
MEDFORD        FAIR      58  28  31 E10       30.25S
MERRILL        FAIR      60  28  30 SE6       30.26S
$$

WIZ029-030-035-036-043>047-201800-
CENTRAL WISCONSIN

CITY           SKY/WX    TMP DP  RH WIND       PRES   REMARKS
WAUSAU         FAIR      59  29  31 E7        30.24R
MOSINEE        MOSUNNY   59  34  38 E7        30.26S
MARSHFIELD     FAIR      60  41  49 E13       30.23F
STEVENS POINT  NOT AVBL
WAUPACA        FAIR      60  42  51 CALM      30.25F
WAUTOMA        CLOUDY    54  44  69 E7        30.25F
WISC RAPIDS    FAIR      62  41  46 E6        30.24F
CAMP DOUGLAS   PTSUNNY   52  46  82 NE8       30.25R
$$

WIZ011>013-019>022-031-037>040-048>050-201800-
NORTHEAST WISCONSIN

CITY           SKY/WX    TMP DP  RH WIND       PRES   REMARKS
ANTIGO         FAIR      57  29  34 SE7       30.26S
SHAWANO        FAIR      60  32  34 E7        30.26F
OCONTO         FAIR      55  34  45 NE6       30.26S
STURGEON BAY   FAIR      51  36  56 N8        30.27S
GREEN BAY      FAIR      55  38  52 NE14      30.27S
MANITOWOC      PTSUNNY   52  41  66 NE8       30.26F
APPLETON       PTSUNNY   55  39  54 NE6       30.24F
CLINTONVILLE   FAIR      58  34  40 NE8       30.26S
OSHKOSH        CLOUDY    53  45  74 NE9       30.25S
$$

WIZ032>034-041-042-053>061-201800-
SOUTHWEST WISCONSIN

CITY           SKY/WX    TMP DP  RH WIND       PRES   REMARKS
LA CROSSE      CLOUDY    51  48  89 E5        30.24S FOG
SPARTA         CLOUDY    51  46  80 NE8       30.25S
VIROQUA        CLOUDY    49  47  94 NE7       30.23R
BOSCOBEL       CLOUDY    54  49  83 NE7       30.22S
PRAIRIE DU CHI CLOUDY    53  49  87 NE6       30.21S
PLATTEVILLE    CLOUDY    53  52  97 NE10G16   30.20R
$$

WIZ056-057-062-063-064-067-068-201800-
SOUTH CENTRAL WISCONSIN

CITY           SKY/WX    TMP DP  RH WIND       PRES   REMARKS
REEDSBURG      CLOUDY    51  46  80 E7        30.24R
BARABOO/DELLS  CLOUDY    50  44  78 NE7       30.24R
LONE ROCK      CLOUDY    53  49  86 E12       30.23R
MINERAL POINT  CLOUDY    52  52 100 NE10      30.21R
MADISON        CLOUDY    50  46  86 E8        30.23R
MIDDLETON      CLOUDY    53  48  83 E9        30.23R
WATERTOWN      CLOUDY    50  47  90 E5        30.23S
MONROE         CLOUDY    50  46  87 NE8       30.20S
JANESVILLE     CLOUDY    52  48  87 NE12      30.21F
$$

WIZ051-052-058>065-066-070>072-201800-
SOUTHEAST WISCONSIN

CITY           SKY/WX    TMP DP  RH WIND       PRES   REMARKS
MILWAUKEE      LGT RAIN  43  41  93 N16G24    30.23F
WAUKESHA       PTSUNNY   46  43  87 NE8       30.24F
MILWAUKEE/TIMM DRIZZLE   45  37  76 NE10      30.25F
RACINE         LGT RAIN  43  41  93 NE20G25   30.24F FOG
BURLINGTON     CLOUDY    46  42  89 NE9       30.24R
KENOSHA        LGT RAIN  45  41  86 NE12G22   30.23F
FOND DU LAC    CLOUDY    52  44  74 N10       30.24F
SHEBOYGAN      PTSUNNY   50  43  77 NE9G17    30.25F
WEST BEND      PTSUNNY   48  43  81 E10       30.24S
JUNEAU         CLOUDY    50  44  80 NE5       30.25R
$$

LSZ147-162-201800-
LAKE SUPERIOR

STATION/POSITION TIME  TEMP    WIND        PRES    WAVE
                       AIR SEA DIR/SP/G            HT/PER
                 (UTC) (F)     (DEG/KT/KT) (MB)    (FT/S)
W MID LAKE BUOY  1650   38 36  240/  6/  8 1026.3F   1/ 5
DEVILS ISLAND    1700   45     250/  5/  8 1026.6F
SAXON HARBOR     1640   44      30/  5/  6 1025.4S
$$

LMZ867-665-643>646-201800-
LAKE MICHIGAN

STATION/POSITION TIME  TEMP    WIND        PRES    WAVE
                       AIR SEA DIR/SP/G            HT/PER
                 (UTC) (F)     (DEG/KT/KT) (MB)    (FT/S)
NORTHPORT PIER   1640   46                 1024.7S
KEWAUNEE LAKESHO 1642   47      40/  6/ 10 1024.4R
SHEBOYGAN LAKESH 1700   43      20/ 17/ 18 1025.0F
PORT WASHINGTON  1640   46      50/ 16/ 19 1025.1F
MILWAUKEE LAKESH 1650   42      20/ 18/ 21   N/A
KENOSHA   LAKESH 1700   42                 1023.0
$$

TC  - TEMPERATURE IN CELSIUS
VSB - VISIBILITY IN STATUTE MILES
WCI - WIND CHILL INDEX
HX  - HEAT INDEX





USA.gov is the U.S. government's official web portal to all federal, state and local government web resources and services.